Vorticity
36 30 18 10 14 69 1 -37 18 -7 12 1 3 8 19 16 9 10 8 8 5 4 7 10 9 6 5 5 7 6 9 10 10 9 7 11 11 10 6 1 11 21 24 25
21 7 14 -4 21 31 35 37 37 29 25 -7 8 10 7 12 8 7 5 23 0 11 12 9 5 5 7 7 7 9 10 10 9 10 6 14 10 10 7 7 11 30 23 9
22 27 29 21 32 8 16 -2 13 14 9 12 7 11 10 5 6 13 2 11 9 8 7 5 5 7 9 7 9 10 6 2 5 11 9 15 8 10 8 11 12 29 20 15
11 10 11 12 13 6 5 6 7 8 10 11 10 5 1 18 1 6 6 6 7 6 8 8 10 9 8 10 10 4 3 18 11 9 11 14 9 11 7 13 20 20 13 18
7 8 8 10 10 11 10 10 11 8 6 3 3 5 11 14 11 8 11 12 9 9 11 9 8 8 11 10 2 9 13 5 11 8 12 12 9 12 9 12 26 17 10 18
9 8 8 8 7 7 -4 -0 8 5 7 9 7 6 5 6 6 11 10 6 10 10 7 8 8 12 6 4 13 11 7 8 10 7 14 14 10 14 17 11 28 20 12 20
5 4 4 5 5 5 4 3 3 3 3 4 4 7 8 12 12 9 10 7 8 8 8 10 10 5 7 13 9 5 11 8 8 5 15 13 11 19 12 10 27 18 12 19
4 4 4 7 6 6 3 2 3 4 4 8 13 14 13 10 12 11 11 11 11 12 9 5 6 11 11 10 7 1 10 10 8 10 22 11 17 13 14 12 18 21 17 17
6 3 4 4 2 4 3 3 6 8 12 15 9 9 11 11 11 11 10 8 6 7 10 14 14 12 13 14 12 11 12 10 8 17 14 17 19 8 18 9 8 28 21 15
6 4 4 3 3 5 5 9 10 14 9 6 12 9 10 9 10 12 14 16 18 20 21 20 21 21 18 15 14 13 18 10 10 19 14 4 13 14 7 8 10 9 26 24
7 6 6 6 5 11 10 9 13 8 10 9 11 11 16 20 20 21 21 20 19 14 13 10 7 9 10 10 11 10 17 12 6 18 9 0 -2 4 14 15 11 12 11 27
8 8 9 11 12 12 12 11 11 10 12 13 22 27 15 12 15 14 8 6 3 5 6 7 9 9 15 17 6 12 8 14 3 13 1 5 7 7 -3 1 10 11 12 12
8 9 11 12 10 12 9 9 11 13 22 31 3 30 12 1 7 13 18 22 24 23 24 23 25 23 19 6 8 13 8 15 6 1 10 1 6 4 8 12 3 1 15 11
9 9 9 13 9 9 11 13 19 34 9 29 -8 7 16 21 20 16 10 11 15 14 14 21 19 12 19 25 18 14 8 4 19 21 10 6 8 -5 -4 3 3 7 5 18
8 11 11 9 11 11 16 29 7 35 1 10 26 21 13 13 15 17 15 6 25 21 13 20 24 14 8 24 21 18 14 6 6 6 14 29 8 2 20 19 20 11 2 6
9 11 11 12 11 17 24 45 3 1 27 12 8 9 11 14 17 22 26 17 10 29 14 21 26 17 8 14 16 24 28 2 5 -1 3 4 11 24 4 7 6 7 8 25
8 10 11 16 15 27 33 -0 14 20 4 14 12 13 10 8 7 6 13 27 12 31 11 18 25 20 14 10 11 14 12 26 27 3 3 19 -3 5 5 3 8 20 17 31
11 10 14 17 27 24 7 30 10 22 18 16 21 21 21 23 22 16 16 20 18 25 24 15 19 24 24 19 15 18 15 15 8 12 10 11 12 11 10 9 14 9 10 -3
8 12 20 24 34 33 22 13 11 12 8 8 5 8 8 10 18 20 17 15 20 18 23 22 21 17 16 17 18 16 16 19 15 17 18 19 19 14 14 13 14 13 9 11
9 14 26 48 36 17 4 10 13 6 8 8 2 4 8 5 7 9 15 18 20 18 16 14 12 12 13 15 15 14 14 16 16 16 18 18 20 21 22 24 22 19 19 13
10 27 46 37 14 6 7 8 10 8 2 7 9 8 10 9 8 9 11 9 3 0 -0 -1 -0 3 4 3 8 11 12 14 15 12 12 11 7 6 7 9 9 8 10 13
14 42 44 16 9 5 8 3 4 7 7 7 6 11 18 18 18 14 14 14 15 13 12 12 11 11 11 11 10 10 5 3 3 3 6 7 7 5 1 -2 5 12 11 12
31 40 32 7 7 6 3 5 9 12 11 10 12 8 3 1 5 12 9 11 13 6 7 9 8 10 16 15 13 11 11 11 12 9 6 4 2 5 7 8 4 0 -2 2
23 40 19 12 8 2 6 7 6 8 8 5 3 8 12 20 15 17 14 -0 4 3 6 12 11 10 16 16 18 16 14 18 22 25 29 24 14 11 8 6 7 4 7 2
17 33 20 14 8 1 1 -1 8 2 5 9 12 23 3 0 3 -0 -4 -2 -3 -2 1 0 5 5 5 1 1 1 1 -3 2 5 1 -4 14 20 26 20 16 9 7 3
13 24 23 14 10 9 -2 2 7 4 6 9 11 -1 0 1 0 2 -2 -1 3 -0 2 2 5 1 -1 1 -1 -0 1 1 -3 1 6 9 -1 -8 5 23 12 23 17 12
11 15 23 15 18 10 8 1 8 4 9 8 5 -4 2 -1 -2 -2 -2 -2 2 -0 2 3 4 -2 -2 3 5 0 -6 1 -2 3 3 1 3 5 1 -11 29 15 10 15
Height
5708 5706 5703 5702 5700 5696 5700 5702 5700 5702 5703 5704 5703 5702 5701 5701 5697 5695 5693 5689 5685 5681 5676 5673 5668 5662 5655 5649 5642 5634 5625 5616 5607 5597 5586 5574 5562 5549 5536 5522 5506 5488 5471 5456
5709 5707 5705 5702 5698 5696 5696 5699 5702 5702 5702 5702 5700 5699 5698 5696 5693 5691 5688 5684 5679 5675 5671 5666 5661 5656 5650 5641 5635 5626 5618 5610 5600 5590 5578 5566 5554 5542 5528 5513 5496 5477 5462 5449
5710 5707 5704 5702 5698 5699 5699 5701 5701 5701 5701 5700 5698 5696 5695 5693 5689 5686 5683 5678 5674 5670 5665 5660 5655 5650 5645 5637 5629 5621 5612 5604 5594 5584 5573 5561 5548 5536 5521 5506 5488 5470 5456 5442
5713 5710 5708 5706 5704 5702 5701 5701 5701 5700 5700 5698 5696 5694 5692 5690 5686 5681 5677 5673 5668 5663 5659 5654 5649 5642 5637 5629 5623 5615 5607 5598 5588 5579 5568 5556 5543 5530 5516 5500 5483 5467 5453 5439
5717 5714 5713 5710 5709 5707 5705 5705 5703 5701 5699 5696 5695 5692 5689 5685 5681 5675 5672 5667 5660 5657 5653 5647 5642 5636 5630 5623 5617 5609 5601 5593 5584 5575 5564 5552 5539 5527 5513 5497 5481 5465 5451 5438
5721 5718 5716 5714 5711 5709 5707 5706 5704 5702 5699 5696 5692 5689 5684 5679 5675 5671 5665 5659 5655 5652 5646 5641 5636 5630 5624 5618 5611 5604 5597 5589 5580 5571 5560 5548 5537 5524 5511 5497 5481 5465 5452 5439
5723 5720 5718 5715 5713 5710 5709 5709 5703 5700 5697 5693 5689 5685 5678 5674 5669 5664 5659 5654 5649 5644 5640 5635 5629 5624 5619 5613 5606 5600 5593 5585 5577 5568 5558 5547 5536 5523 5511 5498 5482 5467 5455 5443
5724 5722 5720 5716 5713 5711 5708 5704 5700 5697 5693 5688 5683 5678 5673 5667 5663 5658 5653 5648 5643 5638 5633 5628 5623 5618 5612 5608 5602 5596 5589 5582 5575 5567 5557 5547 5536 5525 5513 5501 5486 5470 5459 5449
5725 5722 5719 5715 5712 5709 5705 5700 5697 5693 5687 5683 5678 5672 5667 5662 5657 5652 5647 5641 5636 5630 5625 5620 5615 5610 5606 5602 5596 5592 5587 5580 5574 5566 5558 5549 5538 5528 5517 5506 5491 5477 5465 5456
5724 5720 5717 5713 5710 5706 5701 5698 5694 5689 5682 5677 5673 5667 5662 5656 5651 5646 5640 5634 5628 5623 5618 5613 5609 5605 5601 5596 5592 5588 5584 5579 5573 5566 5560 5551 5541 5531 5522 5511 5499 5486 5473 5463
5722 5718 5715 5711 5707 5703 5698 5693 5689 5684 5679 5673 5668 5662 5656 5650 5645 5639 5634 5629 5624 5619 5614 5609 5605 5601 5597 5593 5589 5585 5581 5577 5572 5567 5561 5553 5545 5536 5526 5516 5506 5494 5483 5473
5720 5716 5712 5708 5704 5699 5694 5689 5685 5680 5674 5668 5663 5657 5652 5647 5642 5637 5631 5626 5620 5615 5610 5605 5601 5598 5594 5590 5586 5583 5580 5576 5572 5568 5562 5556 5547 5540 5532 5522 5513 5503 5494 5484
5717 5713 5710 5706 5700 5696 5691 5686 5681 5676 5670 5665 5660 5655 5651 5646 5640 5633 5627 5621 5616 5611 5605 5601 5596 5593 5590 5587 5584 5582 5580 5576 5572 5568 5564 5558 5552 5545 5537 5529 5521 5512 5504 5496
5715 5711 5707 5703 5698 5693 5688 5683 5677 5672 5668 5663 5660 5654 5649 5644 5637 5632 5626 5620 5614 5608 5602 5597 5593 5591 5588 5584 5582 5581 5579 5577 5573 5569 5565 5560 5555 5549 5542 5536 5528 5521 5513 5506
5714 5710 5706 5701 5695 5690 5685 5680 5676 5672 5668 5664 5659 5654 5648 5643 5638 5632 5626 5620 5613 5607 5602 5597 5593 5590 5588 5585 5583 5581 5579 5578 5575 5571 5567 5562 5557 5552 5546 5539 5532 5527 5520 5514
5712 5708 5703 5698 5693 5687 5683 5679 5676 5673 5669 5665 5660 5656 5651 5646 5639 5633 5627 5621 5615 5608 5604 5599 5594 5592 5590 5588 5585 5583 5581 5579 5577 5574 5570 5566 5561 5556 5552 5545 5540 5534 5529 5522
5711 5707 5701 5695 5690 5686 5683 5681 5678 5675 5671 5668 5665 5660 5655 5650 5643 5638 5632 5624 5619 5611 5607 5603 5598 5596 5594 5592 5589 5587 5584 5581 5579 5576 5573 5569 5565 5561 5556 5551 5546 5539 5534 5529
5709 5704 5699 5695 5690 5687 5686 5683 5681 5678 5676 5673 5670 5665 5660 5655 5649 5643 5637 5630 5624 5617 5613 5610 5605 5602 5599 5597 5594 5592 5589 5586 5584 5581 5577 5573 5569 5564 5560 5555 5551 5546 5541 5537
5708 5703 5698 5693 5691 5690 5689 5688 5686 5684 5682 5680 5676 5673 5668 5662 5656 5650 5643 5637 5633 5628 5623 5618 5613 5610 5607 5604 5601 5598 5595 5592 5588 5584 5580 5576 5572 5568 5564 5560 5555 5551 5547 5543
5707 5702 5697 5693 5693 5693 5693 5693 5692 5690 5688 5685 5683 5679 5675 5671 5665 5660 5654 5650 5644 5638 5633 5628 5624 5621 5618 5614 5611 5608 5604 5600 5596 5592 5587 5583 5579 5574 5570 5565 5560 5556 5552 5548
5707 5701 5696 5696 5698 5698 5698 5698 5697 5695 5694 5691 5688 5685 5681 5677 5673 5668 5664 5659 5654 5649 5644 5640 5636 5633 5629 5625 5621 5618 5613 5609 5605 5601 5596 5592 5587 5582 5577 5572 5567 5562 5558 5553
5706 5701 5700 5701 5702 5703 5703 5703 5702 5701 5698 5696 5693 5690 5687 5683 5679 5676 5672 5668 5662 5658 5653 5649 5646 5642 5637 5634 5631 5627 5623 5619 5615 5610 5605 5600 5595 5591 5585 5580 5575 5569 5564 5559
5707 5704 5703 5703 5705 5707 5708 5707 5706 5705 5703 5701 5699 5696 5693 5690 5686 5682 5679 5675 5670 5666 5662 5659 5654 5650 5646 5643 5639 5635 5631 5627 5623 5618 5613 5608 5603 5598 5592 5587 5581 5575 5570 5564
5708 5706 5705 5706 5708 5710 5711 5711 5711 5710 5708 5707 5704 5701 5699 5696 5693 5690 5686 5683 5679 5675 5671 5667 5663 5659 5656 5651 5647 5643 5638 5634 5629 5624 5619 5614 5608 5603 5597 5591 5585 5579 5573 5567
5710 5709 5708 5708 5709 5711 5713 5714 5714 5713 5712 5711 5709 5707 5704 5701 5699 5696 5693 5690 5686 5683 5679 5675 5671 5667 5664 5660 5656 5651 5646 5641 5636 5630 5625 5619 5612 5606 5600 5593 5586 5580 5573 5567
5712 5711 5710 5710 5711 5713 5714 5715 5715 5715 5714 5713 5712 5710 5708 5705 5703 5701 5698 5695 5692 5688 5685 5681 5677 5674 5669 5665 5661 5656 5651 5645 5640 5635 5629 5622 5615 5609 5602 5594 5587 5579 5572 5565
5714 5713 5711 5711 5711 5713 5714 5715 5716 5716 5716 5715 5714 5713 5711 5709 5707 5704 5702 5699 5696 5693 5689 5686 5682 5678 5674 5669 5665 5659 5654 5648 5642 5636 5630 5623 5616 5609 5601 5593 5585 5577 5568 5560